Groton, South Dakota, United States (57445)
Lat: 45.45N, Lon: 98.1W
Wx Zone: SDZ006
Local Info
Past Weather Observations for Wednesday, May 25, 2016

NOTE: This archive is for the closest National Weather Service station to Groton. Information may differ from the station used for current weather conditions.

Click here for Long-term Archive

Time Weather Temperature Dewpoint Humidity Pressure Winds Precip Visibility
23:53
Clear
55°F / 13°C 50°F / 10°C 82% 29.8 in
(1009 mb)
W 3.5 mph
(W 6 kph)
- 10SM
22:53
Clear
57°F / 14°C 50°F / 10°C 77% 29.8 in
(1009 mb)
NW 5.8 mph
(NW 9 kph)
- 10SM
21:53
Clear
57°F / 14°C 54°F / 12°C 88% 29.77 in
(1008 mb)
SW 4.6 mph
(SW 7 kph)
- 10SM
20:53
Clear
61°F / 16°C 52°F / 11°C 72% 29.74 in
(1007 mb)
SW 9.2 mph
(SW 15 kph)
- 10SM
19:53
Clear
64°F / 18°C 52°F / 11°C 64% 29.74 in
(1007 mb)
SSW 5.8 mph
(SSW 9 kph)
- 10SM
18:53
Partly Cloudy
68°F / 20°C 46°F / 8°C 46% 29.71 in
(1006 mb)
SW 5.8 mph
(SW 9 kph)
- 10SM
17:53
Clear
75°F / 24°C 57°F / 14°C 54% 29.74 in
(1007 mb)
SSW 12.7 mph
(SSW 20 kph)
- 10SM
16:53
Partly Cloudy
77°F / 25°C 57°F / 14°C 51% 29.74 in
(1007 mb)
SSW 10.4 mph
(SSW 17 kph)
- 10SM
15:53
Mostly Cloudy
77°F / 25°C 59°F / 15°C 54% 29.74 in
(1007 mb)
Variable 3.5 mph
(Variable 6 kph)
- 10SM
14:53
Partly Cloudy
75°F / 24°C 59°F / 15°C 57% 29.74 in
(1007 mb)
SSW 9.2 mph
(SSW 15 kph)
- 10SM
13:53
Mostly Cloudy
73°F / 23°C 59°F / 15°C 61% 29.74 in
(1007 mb)
W 9.2 mph
(W 15 kph)
- 10SM
13:01
Mostly Cloudy
73°F / 23°C 61°F / 16°C 65% 29.74 in
(1007 mb)
SSW 8.1 mph
(SSW 13 kph)
- 10SM
12:53
Mostly Cloudy
73°F / 23°C 61°F / 16°C 65% 29.74 in
(1007 mb)
W 10.4 mph
(W 17 kph)
- 10SM
12:39
Mostly Cloudy
73°F / 23°C 61°F / 16°C 65% 29.74 in
(1007 mb)
W 8.1 mph
(W 13 kph)
- 10SM
11:53
Partly Cloudy
72°F / 22°C 61°F / 16°C 69% 29.74 in
(1007 mb)
SSW 11.5 mph
(SSW 19 kph)
- 10SM
10:53
Overcast
68°F / 20°C 59°F / 15°C 73% 29.74 in
(1007 mb)
Calm - 10SM
10:20
Mostly Cloudy
68°F / 20°C 59°F / 15°C 73% 29.74 in
(1007 mb)
Variable 5.8 mph
(Variable 9 kph)
- 10SM
09:53
Partly Cloudy
66°F / 19°C 59°F / 15°C 78% 29.74 in
(1007 mb)
NE 5.8 mph
(NE 9 kph)
- 10SM
08:53
Overcast
63°F / 17°C 57°F / 14°C 83% 29.74 in
(1007 mb)
NNE 12.7 mph
(NNE 20 kph)
0.02 in
(0.51 mm)
10SM
07:53
Overcast
Rain
61°F / 16°C 57°F / 14°C 88% 29.77 in
(1008 mb)
NE 13.8 mph
(NE 22 kph)
0.19 in
(4.83 mm)
4SM
06:53
Overcast
Rain
61°F / 16°C 55°F / 13°C 83% 29.77 in
(1008 mb)
ENE 11.5 mph
(ENE 19 kph)
0.07 in
(1.78 mm)
6SM
05:53
Overcast
Light Rain
61°F / 16°C 55°F / 13°C 83% 29.77 in
(1008 mb)
NE 10.4 mph
(NE 17 kph)
0.00 in
(0.00 mm)
10SM
04:53
Mostly Cloudy
61°F / 16°C 55°F / 13°C 83% 29.77 in
(1008 mb)
N 9.2 mph
(N 15 kph)
0.01 in
(0.25 mm)
10SM
04:20
Overcast
Light Rain
61°F / 16°C 55°F / 13°C 83% 29.77 in
(1008 mb)
N 11.5 mph
(N 19 kph)
0.00 in
(0.00 mm)
10SM
04:05
Mostly Cloudy
Thunder Storms
61°F / 16°C 55°F / 13°C 83% 29.77 in
(1008 mb)
WNW 16.1 mph
(WNW 26 kph)
0.00 in
(0.00 mm)
10SM
03:53
Mostly Cloudy
63°F / 17°C 55°F / 13°C 77% 29.8 in
(1009 mb)
SSW 10.4 mph
(SSW 17 kph)
0.00 in
(0.00 mm)
10SM
02:53
Overcast
Light Rain
63°F / 17°C 55°F / 13°C 77% 29.8 in
(1009 mb)
W 16.1 mph
(W 26 kph)
0.05 in
(1.27 mm)
10SM
02:38
Overcast
Thunder Storms
63°F / 17°C 55°F / 13°C 77% 29.8 in
(1009 mb)
SSW 18.4 mph
(SSW 30 kph)
0.03 in
(0.76 mm)
10SM
02:31
Overcast
Thunder Storms
63°F / 17°C 55°F / 13°C 77% 29.8 in
(1009 mb)
W 15 mph
(W 24 kph)
0.02 in
(0.51 mm)
7SM
02:00
Overcast
64°F / 18°C 54°F / 12°C 68% 29.8 in
(1009 mb)
SW 13.8 mph
(SW 22 kph)
- 10SM
01:53
Overcast
Thunder Storms
66°F / 19°C 52°F / 11°C 60% 29.83 in
(1010 mb)
SW 15 mph
(SW 24 kph)
0.00 in
(0.00 mm)
10SM
01:45
Overcast
Thunder Storms
64°F / 18°C 52°F / 11°C 64% 29.8 in
(1009 mb)
SE 3.5 mph
(SE 6 kph)
0.00 in
(0.00 mm)
10SM
00:53
Clear
64°F / 18°C 52°F / 11°C 64% 29.8 in
(1009 mb)
ENE 8.1 mph
(ENE 13 kph)
- 10SM
Time Weather Temperature Dewpoint Humidity Pressure Winds Precip Visibility


Weather for websites

WeatherForYou.com, LLC is not responsible for any damages or problems caused by this service. Current weather conditions are obtained from the closest station including government and personal stations which may have varying degrees of accuracy. Weather forecasts are derived from the NOAA NDFD. Like all things, this site belongs to Jesus Christ... He just trusts us to maintain it. If you have any questions or comments email webmaster@weatherforyou.com

Copyright © 2016, WeatherForYou.com LLC. All rights reserved.